| time (UTC) | temp F | wind direction | speed MPH | gust MPH | rain 1hr in | rain 24hr in | rain mn in | humidity % | barometer mb |
| 20260902084530 | 66 | 144 | 3.0 | 7.0 | 0.00 | 0.00 | 0.00 | 73 | 852.6 |
| 20260902083028 | 66 | 141 | 4.0 | 8.0 | 0.00 | 0.00 | 0.00 | 73 | 852.5 |
| 20260902081529 | 65 | 150 | 4.0 | 7.0 | 0.00 | 0.00 | 0.00 | 74 | 852.5 |
| 20260902080026 | 66 | 136 | 5.0 | 8.0 | 0.00 | 0.00 | 0.00 | 74 | 852.5 |
| 20260902074527 | 66 | 137 | 3.0 | 5.0 | 0.00 | 0.00 | 0.00 | 74 | 852.4 |
| 20260902073004 | 66 | 128 | 4.0 | 7.0 | 0.00 | 0.00 | 0.00 | 74 | 852.4 |
| 20260902071504 | 66 | 128 | 4.0 | 7.0 | 0.00 | 0.00 | 0.00 | 75 | 852.4 |
| 20260902070007 | 66 | 140 | 4.0 | 6.0 | 0.00 | 0.00 | 0.00 | 75 | 852.5 |
| 20260902064528 | 65 | 143 | 3.0 | 7.0 | 0.00 | 0.00 | 0.00 | 76 | 852.6 |
| 20260902063053 | 64 | 157 | 2.0 | 4.0 | 0.00 | 0.00 | 0.00 | 77 | 852.6 |
| 20260902061531 | 64 | 158 | 1.0 | 4.0 | 0.00 | 0.00 | 0.00 | 77 | 852.6 |
| 20260902060028 | 64 | 159 | 1.0 | 4.0 | 0.00 | 0.00 | 0.00 | 76 | 852.7 |
| 20260902054533 | 64 | 146 | 2.0 | 4.0 | 0.00 | 0.00 | 0.00 | 75 | 852.7 |
| 20260902053031 | 64 | 144 | 2.0 | 5.0 | 0.00 | 0.00 | 0.00 | 74 | 852.7 |
| 20260902051537 | 65 | 153 | 2.0 | 6.0 | 0.00 | 0.00 | 0.00 | 72 | 852.8 |
| 20260902050031 | 66 | 138 | 1.0 | 3.0 | 0.00 | 0.00 | 0.00 | 70 | 852.8 |
| 20260902044531 | 67 | 136 | 2.0 | 3.0 | 0.00 | 0.00 | 0.00 | 69 | 852.7 |
| 20260902043031 | 68 | 123 | 2.0 | 3.0 | 0.00 | 0.00 | 0.00 | 66 | 852.6 |
| 20260902041544 | 70 | 202 | 1.0 | 2.0 | 0.00 | 0.00 | 0.00 | 64 | 852.6 |
| 20260902040029 | 71 | 217 | 0.0 | 2.0 | 0.00 | 0.00 | 0.00 | 62 | 852.5 |
| 20260902034530 | 72 | 185 | 1.0 | 5.0 | 0.00 | 0.00 | 0.00 | 57 | 852.4 |
| 20260902033027 | 72 | 198 | 3.0 | 6.0 | 0.00 | 0.00 | 0.00 | 57 | 852.2 |
| 20260902031527 | 72 | 202 | 5.0 | 8.0 | 0.00 | 0.00 | 0.00 | 56 | 852.1 |
| 20260902030029 | 72 | 176 | 3.0 | 9.0 | 0.00 | 0.00 | 0.00 | 54 | 851.9 |
| 20260902024529 | 73 | 183 | 4.0 | 9.0 | 0.00 | 0.00 | 0.00 | 52 | 851.6 |
| 20260902023026 | 73 | 205 | 3.0 | 6.0 | 0.00 | 0.00 | 0.00 | 51 | 851.7 |
| 20260902021527 | 74 | 219 | 3.0 | 7.0 | 0.00 | 0.00 | 0.00 | 49 | 851.6 |
| 20260902020032 | 76 | 226 | 3.0 | 10.0 | 0.00 | 0.00 | 0.00 | 45 | 851.5 |
| 20260902014533 | 78 | 229 | 4.0 | 8.0 | 0.00 | 0.00 | 0.00 | 42 | 851.3 |
| 20260902013029 | 79 | 232 | 5.0 | 9.0 | 0.00 | 0.00 | 0.00 | 40 | 851.5 |
| 20260902011530 | 80 | 237 | 4.0 | 10.0 | 0.00 | 0.00 | 0.00 | 40 | 851.4 |
| 20260902010035 | 81 | 221 | 6.0 | 15.0 | 0.00 | 0.00 | 0.00 | 39 | 851.5 |
| 20260902004534 | 81 | 209 | 6.0 | 12.0 | 0.00 | 0.00 | 0.00 | 40 | 851.4 |
| 20260902003107 | 82 | 256 | 9.0 | 18.0 | 0.00 | 0.00 | 0.00 | 37 | 851.4 |
| 20260902001530 | 83 | 254 | 8.0 | 16.0 | 0.00 | 0.00 | 0.00 | 37 | 851.5 |
| 20260902000035 | 83 | 255 | 10.0 | 16.0 | 0.00 | 0.00 | 0.00 | 35 | 851.5 |
| 20260901234532 | 82 | 230 | 10.0 | 16.0 | 0.00 | 0.00 | 0.00 | 35 | 851.5 |
| 20260901233033 | 82 | 176 | 8.0 | 21.0 | 0.00 | 0.00 | 0.00 | 37 | 851.6 |
| 20260901231527 | 82 | 201 | 11.0 | 15.0 | 0.00 | 0.00 | 0.00 | 39 | 851.5 |
| 20260901230029 | 83 | 191 | 7.0 | 19.0 | 0.00 | 0.00 | 0.00 | 36 | 851.5 |
| 20260901224530 | 84 | 195 | 9.0 | 19.0 | 0.00 | 0.00 | 0.00 | 35 | 851.5 |
| 20260901223031 | 84 | 163 | 14.0 | 21.0 | 0.00 | 0.00 | 0.00 | 34 | 851.5 |